Location: Castillon
(43.0896°N, 0.2156°E)
Time: 02:44:22
(UTC+00:00)

Lacrosse 5 - Pass Details

Date: 16 June 2021
Orbit: 715 x 724 km, 57.0° (Epoch: 21 July)

Event Time Altitude Azimuth Distance (km) Brightness Sun altitude
Rises 22:49:12 0° 293° (WNW) 3,123 5.7 -21.6°
Reaches altitude 10° 22:53:56 10° 253° (WSW) 2,198 4.4 -21.8°
Maximum altitude 22:54:43 10° 244° (WSW) 2,174 4.2 -21.9°
Enters shadow 22:55:16 10° 237° (WSW) 2,184 4.2 -21.9°
